Location: *
(42.3442°N, 9.2072°E)
Time: 10:21:15
(UTC+00:00)

Meteor 2-10 Rocket - Pass Details

Date: 15 August 2020
Orbit: 734 x 884 km, 81.2° (Epoch: 22 September)

Event Time Altitude Azimuth Distance (km) Brightness Sun altitude
Rises 02:31:55 0° 144° (SE) 3,227 6.7 -19.6°
Reaches altitude 10° 02:34:57 10° 125° (SE) 2,332 6.2 -19.2°
Maximum altitude 02:38:21 18° 85° (E) 1,890 6.2 -18.7°
Drops below altitude 10° 02:41:50 10° 44° (NE) 2,408 7.3 -18.2°
Sets 02:45:01 0° 26° (NNE) 3,377 8.0 -17.8°
